BCS3906 ESGG-ESOE

Flight info

Callsign BCS3906
Flight time 0h 33m
Altitude 21000
Route LABAN N873 DETSO
Aircraft A306/H-SDE1FGHIRWXYZ/HB1

Departure

Time 2026-05-05 15:25
Airport Göteborg Landvetter Airport (ESGG)

Arrival

Time 2026-05-05 15:59
Airport Örebro Airport (ESOE)
Time Latitude Longitude Altitude Speed Heading
2026-05-05 15:01 57.67219 12.29719 520 ft 0 kts 116°
2026-05-05 15:19 57.67222 12.29709 520 ft 2 kts 116°
2026-05-05 15:19 57.67228 12.29684 519 ft 2 kts 116°
2026-05-05 15:19 57.67233 12.29666 519 ft 0 kts 116°
2026-05-05 15:19 57.67238 12.29643 519 ft 2 kts 96°
2026-05-05 15:20 57.67237 12.29615 519 ft 2 kts 75°
2026-05-05 15:20 57.67231 12.29590 519 ft 2 kts 53°
2026-05-05 15:20 57.67221 12.29570 518 ft 2 kts 32°
2026-05-05 15:20 57.67215 12.29564 518 ft 1 kts 25°
2026-05-05 15:21 57.67213 12.29563 518 ft 0 kts 25°
2026-05-05 15:22 57.67218 12.29567 518 ft 1 kts 26°
2026-05-05 15:23 57.67242 12.29589 519 ft 5 kts 26°
2026-05-05 15:23 57.67298 12.29641 518 ft 12 kts 26°
2026-05-05 15:23 57.67381 12.29576 517 ft 17 kts 299°
2026-05-05 15:23 57.67447 12.29333 513 ft 24 kts 291°
2026-05-05 15:24 57.67447 12.29070 514 ft 10 kts 252°
2026-05-05 15:24 57.67430 12.29024 514 ft 0 kts 206°
2026-05-05 15:24 57.67415 12.29009 514 ft 7 kts 207°
2026-05-05 15:24 57.67385 12.28979 514 ft 15 kts 207°
2026-05-05 15:25 57.67143 12.28754 512 ft 72 kts 205°
2026-05-05 15:25 57.66449 12.28133 515 ft 149 kts 206°
2026-05-05 15:25 57.65402 12.27234 1044 ft 173 kts 207°
2026-05-05 15:25 57.64407 12.26378 2007 ft 160 kts 211°
2026-05-05 15:26 57.63376 12.25391 2393 ft 180 kts 209°
2026-05-05 15:26 57.62053 12.25170 2790 ft 207 kts 168°
2026-05-05 15:26 57.60643 12.26179 3209 ft 229 kts 158°
2026-05-05 15:26 57.59181 12.27348 3991 ft 235 kts 158°
2026-05-05 15:27 57.57701 12.29092 4245 ft 271 kts 129°
2026-05-05 15:27 57.56956 12.32238 5101 ft 277 kts 94°
2026-05-05 15:27 57.57216 12.35719 6048 ft 278 kts 67°
2026-05-05 15:27 57.57937 12.39072 7071 ft 283 kts 63°
2026-05-05 15:28 57.58699 12.42437 7997 ft 291 kts 64°
2026-05-05 15:28 57.59484 12.45995 8919 ft 299 kts 64°
2026-05-05 15:28 57.60257 12.49574 9769 ft 307 kts 64°
2026-05-05 15:28 57.61054 12.53303 10534 ft 319 kts 64°
2026-05-05 15:29 57.61943 12.57237 10888 ft 340 kts 57°
2026-05-05 15:29 57.63520 12.60557 11335 ft 348 kts 33°
2026-05-05 15:29 57.65494 12.63140 11967 ft 357 kts 27°
2026-05-05 15:29 57.67609 12.65685 12671 ft 367 kts 27°
2026-05-05 15:30 57.69767 12.68323 13410 ft 375 kts 28°
2026-05-05 15:30 57.71950 12.71052 13892 ft 392 kts 28°
2026-05-05 15:30 57.74295 12.74006 14049 ft 417 kts 29°
2026-05-05 15:30 57.76709 12.77083 14766 ft 426 kts 29°
2026-05-05 15:31 57.79104 12.80180 16019 ft 418 kts 29°
2026-05-05 15:31 57.81515 12.83281 16496 ft 432 kts 29°
2026-05-05 15:31 57.83989 12.86454 17187 ft 439 kts 29°
2026-05-05 15:31 57.86483 12.89675 18046 ft 439 kts 29°
2026-05-05 15:32 57.89033 12.92962 18540 ft 442 kts 28°
2026-05-05 15:32 57.91555 12.96218 18830 ft 445 kts 28°
2026-05-05 15:32 57.94086 12.99499 18869 ft 436 kts 28°
2026-05-05 15:32 57.96515 13.02660 18868 ft 417 kts 28°
2026-05-05 15:33 57.98827 13.05678 18864 ft 399 kts 28°
2026-05-05 15:33 58.01094 13.08623 18880 ft 399 kts 28°
2026-05-05 15:33 58.03463 13.11684 18883 ft 410 kts 28°
2026-05-05 15:33 58.05775 13.14689 18884 ft 408 kts 28°
2026-05-05 15:34 58.08149 13.17800 18873 ft 411 kts 28°
2026-05-05 15:34 58.10505 13.20888 18873 ft 410 kts 28°
2026-05-05 15:34 58.12825 13.23933 18879 ft 410 kts 28°
2026-05-05 15:34 58.15181 13.27025 18880 ft 412 kts 28°
2026-05-05 15:35 58.17461 13.30487 18850 ft 418 kts 38°
2026-05-05 15:35 58.19425 13.34506 18865 ft 417 kts 44°
2026-05-05 15:35 58.21244 13.38681 18871 ft 402 kts 46°
2026-05-05 15:35 58.22970 13.42686 18855 ft 393 kts 45°
2026-05-05 15:36 58.24747 13.46706 18882 ft 400 kts 44°
2026-05-05 15:36 58.26559 13.50743 18881 ft 399 kts 44°
2026-05-05 15:36 58.28349 13.54730 18875 ft 395 kts 44°
2026-05-05 15:36 58.30136 13.58699 18874 ft 401 kts 44°
2026-05-05 15:37 58.31956 13.62754 18874 ft 399 kts 44°
2026-05-05 15:37 58.33766 13.66806 18868 ft 401 kts 45°
2026-05-05 15:37 58.35590 13.70872 18859 ft 416 kts 45°
2026-05-05 15:37 58.37478 13.75107 18506 ft 409 kts 45°
2026-05-05 15:38 58.39305 13.79231 17616 ft 406 kts 45°
2026-05-05 15:38 58.41104 13.83294 16803 ft 399 kts 45°
2026-05-05 15:38 58.42846 13.87232 15995 ft 393 kts 45°
2026-05-05 15:38 58.44609 13.91211 14924 ft 392 kts 45°
2026-05-05 15:39 58.46327 13.95097 14285 ft 379 kts 45°
2026-05-05 15:39 58.47974 13.98839 13503 ft 371 kts 45°
2026-05-05 15:39 58.49623 14.02578 12771 ft 361 kts 45°
2026-05-05 15:39 58.51203 14.06163 12356 ft 348 kts 45°
2026-05-05 15:40 58.52725 14.09620 12123 ft 336 kts 45°
2026-05-05 15:40 58.54204 14.13004 11995 ft 323 kts 44°
2026-05-05 15:40 58.55632 14.16273 11710 ft 316 kts 44°
2026-05-05 15:40 58.57023 14.19446 11373 ft 311 kts 44°
2026-05-05 15:41 58.58395 14.22586 11003 ft 306 kts 44°
2026-05-05 15:41 58.59786 14.25604 10657 ft 299 kts 39°
2026-05-05 15:41 58.61312 14.28238 10306 ft 292 kts 34°
2026-05-05 15:41 58.62873 14.30696 9932 ft 288 kts 33°
2026-05-05 15:42 58.64410 14.33052 9549 ft 285 kts 33°
2026-05-05 15:42 58.65971 14.35430 9042 ft 287 kts 33°
2026-05-05 15:42 58.67523 14.37794 8663 ft 283 kts 34°
2026-05-05 15:42 58.69056 14.40125 8265 ft 281 kts 34°
2026-05-05 15:43 58.70584 14.42450 7828 ft 280 kts 34°
2026-05-05 15:43 58.72097 14.44751 7436 ft 278 kts 34°
2026-05-05 15:43 58.73598 14.47041 7037 ft 276 kts 34°
2026-05-05 15:43 58.75098 14.49329 6632 ft 275 kts 34°
2026-05-05 15:44 58.76584 14.51599 6238 ft 273 kts 34°
2026-05-05 15:44 58.78064 14.53869 5804 ft 272 kts 35°
2026-05-05 15:44 58.79534 14.56119 5423 ft 270 kts 34°
2026-05-05 15:44 58.80984 14.58295 5038 ft 265 kts 28°
2026-05-05 15:45 58.82662 14.59170 4931 ft 243 kts 352°
2026-05-05 15:45 58.84322 14.58454 4940 ft 252 kts 351°
2026-05-05 15:45 58.86076 14.59002 4970 ft 263 kts 16°
2026-05-05 15:45 58.87786 14.60299 4949 ft 264 kts 18°
2026-05-05 15:46 58.89484 14.61554 4950 ft 264 kts 16°
2026-05-05 15:46 58.91214 14.62738 4951 ft 263 kts 15°
2026-05-05 15:46 58.92956 14.63871 4957 ft 264 kts 14°
2026-05-05 15:46 58.94705 14.64979 4939 ft 263 kts 14°
2026-05-05 15:47 58.96447 14.66060 4938 ft 265 kts 15°
2026-05-05 15:47 58.97617 14.66780 4937 ft 264 kts 14°
2026-05-05 15:47 58.99928 14.68204 4936 ft 264 kts 14°
2026-05-05 15:47 59.01683 14.69285 4943 ft 263 kts 14°
2026-05-05 15:48 59.03424 14.70354 4946 ft 265 kts 14°
2026-05-05 15:48 59.05153 14.71409 4941 ft 263 kts 14°
2026-05-05 15:48 59.06912 14.72490 4936 ft 264 kts 14°
2026-05-05 15:48 59.08663 14.73568 4935 ft 263 kts 14°
2026-05-05 15:49 59.10410 14.74638 4937 ft 264 kts 14°
2026-05-05 15:49 59.12163 14.75716 4938 ft 264 kts 14°
2026-05-05 15:49 59.13902 14.76788 4934 ft 263 kts 14°
2026-05-05 15:49 59.15650 14.77866 4937 ft 265 kts 14°
2026-05-05 15:50 59.17388 14.78941 4937 ft 264 kts 14°
2026-05-05 15:50 59.19141 14.80025 4937 ft 265 kts 14°
2026-05-05 15:50 59.20902 14.81112 4937 ft 265 kts 14°
2026-05-05 15:50 59.22634 14.82184 4940 ft 265 kts 14°
2026-05-05 15:51 59.24390 14.83277 4942 ft 264 kts 14°
2026-05-05 15:51 59.26141 14.84364 4941 ft 265 kts 14°
2026-05-05 15:51 59.27906 14.85459 4944 ft 265 kts 14°
2026-05-05 15:51 59.29660 14.86549 4821 ft 269 kts 14°
2026-05-05 15:52 59.31455 14.87665 4634 ft 268 kts 15°
2026-05-05 15:52 59.33188 14.88750 4382 ft 264 kts 14°
2026-05-05 15:52 59.34946 14.89848 4123 ft 262 kts 14°
2026-05-05 15:52 59.36657 14.90918 3873 ft 262 kts 14°
2026-05-05 15:53 59.38393 14.92001 3614 ft 260 kts 14°
2026-05-05 15:53 59.40100 14.93069 3361 ft 259 kts 14°
2026-05-05 15:53 59.41797 14.94210 3180 ft 253 kts 24°
2026-05-05 15:53 59.43030 14.96483 3114 ft 244 kts 52°
2026-05-05 15:54 59.43919 14.99231 3048 ft 231 kts 57°
2026-05-05 15:54 59.44331 15.02162 3050 ft 228 kts 89°
2026-05-05 15:54 59.44209 15.05489 3051 ft 256 kts 97°
2026-05-05 15:54 59.43491 15.08650 3038 ft 259 kts 134°
2026-05-05 15:55 59.41943 15.10502 3047 ft 271 kts 168°
2026-05-05 15:55 59.40145 15.10614 3009 ft 247 kts 190°
2026-05-05 15:55 59.38534 15.10128 2998 ft 221 kts 194°
2026-05-05 15:55 59.37132 15.09626 3065 ft 190 kts 194°
2026-05-05 15:56 59.35842 15.09141 3054 ft 195 kts 195°
2026-05-05 15:56 59.34494 15.08619 3031 ft 192 kts 195°
2026-05-05 15:56 59.33270 15.08153 3033 ft 164 kts 196°
2026-05-05 15:56 59.32241 15.07770 2823 ft 145 kts 196°
2026-05-05 15:57 59.31252 15.07404 2397 ft 142 kts 197°
2026-05-05 15:57 59.30284 15.07010 1961 ft 144 kts 198°
2026-05-05 15:57 59.29318 15.06626 1655 ft 139 kts 197°
2026-05-05 15:57 59.28395 15.06280 1318 ft 138 kts 197°
2026-05-05 15:58 59.27466 15.05878 1010 ft 131 kts 197°
2026-05-05 15:58 59.26600 15.05509 689 ft 129 kts 195°
2026-05-05 15:58 59.25711 15.05127 705 ft 126 kts 196°
2026-05-05 15:58 59.24838 15.04787 446 ft 130 kts 196°
2026-05-05 15:59 59.23951 15.04436 296 ft 129 kts 195°
2026-05-05 15:59 59.23129 15.04090 197 ft 94 kts 190°
2026-05-05 15:59 59.22787 15.04068 191 ft 18 kts 110°
2026-05-05 15:59 59.22758 15.04339 193 ft 12 kts 104°
2026-05-05 16:00 59.22743 15.04479 192 ft 6 kts 99°